Tracking 28799 objects as of 18-Apr-2024
HD Live streaming from Space Station
objects crossing your sky now

SL-6 DEB

Track SL-6 DEB now!
10-day predictions


NORAD ID: 13909
Int'l Code: 1981-088J
Perigee: 983.3 km
Apogee: 12,579.7 km
Inclination: 63.6 °
Period: 250.2 minutes
Semi major axis: 13152 km
RCS: 0.3407 m2 (medium)
Launch date: September 11, 1981
Source: Commonwealth of Independent States (former USSR) (CIS)
Launch site: PLESETSK MISSILE AND SPACE COMPLEX (PKMTR)

Note: This is SATELLITE DEBRIS
Your satellite tracking list
Your tracking list is empty




NASA's NSSDC Master Catalog

Two Line Element Set (TLE):
1 13909U 81088J   24108.13508020  .00001447  00000-0  28647-1 0  9995
2 13909  63.6040 174.1322 4408434 288.9730  37.0913  5.75557746231333
Source of the keplerian elements: AFSPC